Port Vila, Vanuatu

5:46 AM +11 on May 26, 2017 (GMT +1100)
Bauerfield

Weather History for NVVV - November, 2013

Change the Weather History Date:

Wednesday, November 27, 2013

  Actual Average Record
Temperature  
Mean Temperature 82 °F -  
Max Temperature 87 °F - - ()
Min Temperature 77 °F - - ()
Cooling Degree Days 17    
Growing Degree Days 32 (Base 50)    
Moisture  
Dew Point 76 °F    
Average Humidity 88    
Maximum Humidity 97    
Minimum Humidity 73    
Precipitation  
Precipitation 0.94 in - - ()
Sea Level Pressure  
Sea Level Pressure 29.75 in    
Wind  
Wind Speed 4 mph ()    
Max Wind Speed 14 mph    
Max Gust Speed -    
Visibility 7.7 miles    
Events Rain , Snow    
T = Trace of Precipitation, MM = Missing Value Source: Averaged Metar Reports

Daily Weather History Graph

Daily Weather History Graph

Search for Another Location

Airport or City:

Trip Planner

Search our weather history database for the weather conditions in past years. The results will help you decide how hot, cold, wet, or windy it might be!

Date:

Astronomy

Nov. 27, 2013 Rise Set
Actual Time 5:02 AM +11 6:06 PM +11
Civil Twilight 4:38 AM +11 6:30 PM +11
Nautical Twilight 4:10 AM +11 6:58 PM +11
Astronomical Twilight 3:41 AM +11 7:26 PM +11
Moon 12:18 AM +11 (11/27) 12:35 PM +11 (11/27)
Length of Visible Light 13h 51m
Length of Day
13h 04m
Last Quarter, 38% of the Moon is Illuminated
Nov 27
Last Quarter
Dec 3
New
Dec 10
First Quarter
Dec 17
Full
Dec 26
Last Quarter

Hourly Weather History & Observations

Time (+11) Temp. Heat Index Dew Point Humidity Pressure Visibility Wind Dir Wind Speed Gust Speed Precip Events Conditions
12:00 AM 78.8 °F - 75.2 °F 89% 29.71 in 6.2 mi NNW 4.6 mph - N/A   Mostly Cloudy
1:00 AM 77.0 °F - 75.2 °F 94% 29.68 in 6.2 mi NNW 5.8 mph - N/A   Mostly Cloudy
2:00 AM 82 °F - 77 °F 79% 29.70 in 6 mi NW 5.8 mph - -   Overcast
2:00 AM 80.6 °F 86.2 °F 75.2 °F 84% 29.68 in 6.2 mi NW 5.8 mph - N/A   Mostly Cloudy
5:00 AM 80 °F - 77 °F 89% 29.72 in 12 mi WNW 4.6 mph - - Rain Light Rain Showers
5:00 AM 80.6 °F 86.2 °F 75.2 °F 84% 29.68 in 6.2 mi NW 5.8 mph - N/A   Mostly Cloudy
6:00 AM 78.8 °F - 77.0 °F 94% 29.71 in 6.2 mi Calm Calm - N/A   Mostly Cloudy
7:00 AM 80.6 °F 87.1 °F 77.0 °F 89% 29.74 in 6.2 mi WSW 3.5 mph - N/A   Mostly Cloudy
8:00 AM 84 °F - 78 °F 77% 29.76 in 12 mi West 6.9 mph - -   Partly Cloudy
8:00 AM 82.4 °F 90.9 °F 77.0 °F 84% 29.74 in 6.2 mi West 6.9 mph - N/A   Partly Cloudy
9:00 AM 86.0 °F 96.9 °F 77.0 °F 74% 29.74 in 6.2 mi SW 13.8 mph - N/A   Partly Cloudy
11:00 AM 86 °F - 78 °F 73% 29.74 in 12 mi WNW 10.4 mph - - Snow Rain
11:00 AM 86.0 °F 96.9 °F 77.0 °F 74% 29.74 in 6.2 mi WNW 10.4 mph - N/A   Partly Cloudy
2:00 PM 80 °F - 78 °F 93% 29.73 in 6 mi Calm Calm - - Rain Light Rain Showers
5:00 PM 79 °F - 76 °F 89% 29.75 in 12 mi 2.3 mph - -   Partly Cloudy
5:00 PM 78.8 °F - 77.0 °F 94% 29.74 in 6.2 mi Variable 2.3 mph - N/A   Overcast
7:00 PM 78.8 °F - 77.0 °F 94% 29.77 in 6.2 mi Variable 3.5 mph - N/A   Mostly Cloudy
8:00 PM 78 °F - 76 °F 92% 29.81 in 12 mi Calm Calm - -   Partly Cloudy
8:00 PM 78.8 °F - 77.0 °F 94% 29.80 in 6.2 mi Calm Calm - N/A   Mostly Cloudy
9:00 PM 77.0 °F - 75.2 °F 94% 29.83 in 6.2 mi Calm Calm - N/A   Mostly Cloudy
10:00 PM 77.0 °F - 75.2 °F 94% 29.83 in 6.2 mi Calm Calm - N/A   Mostly Cloudy
11:00 PM 77 °F - 76 °F 97% 29.82 in 12 mi Calm Calm - -   Partly Cloudy
11:00 PM 77.0 °F - 75.2 °F 94% 29.80 in 6.2 mi Calm Calm - N/A   Mostly Cloudy